Weather History for KLXV - September, 2012

Change the Weather History Date:

Wednesday, September 19, 2012

  Actual Average Record
Temperature  
Mean Temperature 49 °F -  
Max Temperature 65 °F 60 °F 75 °F (2010)
Min Temperature 32 °F 30 °F 19 °F (1988)
Degree Days  
Heating Degree Days 16 20  
Month to date heating degree days 307 334  
Since 1 July heating degree days 877 1056  
Cooling Degree Days 0 0  
Month to date cooling degree days 0 0  
Year to date cooling degree days 0 0  
Moisture  
Dew Point 16 °F    
Average Humidity 34    
Maximum Humidity 56    
Minimum Humidity 11    
Precipitation  
Precipitation 0.00 in 0.04 in 0.22 in (1999)
Month to date precipitation 0.78 0.75  
Year to date precipitation 9.23 9.70  
Sea Level Pressure  
Sea Level Pressure 30.07 in    
Wind  
Wind Speed 7 mph (NNE)    
Max Wind Speed 18 mph    
Max Gust Speed 23 mph    
Visibility 10 miles    
Events      
T = Trace of Precipitation, MM = Missing Value Source: NWS Daily Summary

Daily Weather History Graph

Daily Weather History Graph

Search for Another Location

Airport or City:

Trip Planner

Search our weather history database for the weather conditions in past years. The results will help you decide how hot, cold, wet, or windy it might be!

Date:

Astronomy

Sep. 19, 2012 Rise Set
Actual Time 6:50 AM MDT 7:06 PM MDT
Civil Twilight 6:23 AM MDT 7:33 PM MDT
Nautical Twilight 5:52 AM MDT 8:04 PM MDT
Astronomical Twilight 5:20 AM MDT 8:36 PM MDT
Moon 11:02 AM MDT (9/19) 9:20 PM MDT (9/19)
Length of Visible Light 13h 09m
Length of Day
12h 15m
Waxing Crescent, 17% of the Moon is Illuminated
Sep 19
Waxing Crescent
Sep 22
First Quarter
Sep 29
Full
Oct 8
Last Quarter
Oct 15
New

Hourly Weather History & Observations

Time (MDT) Temp. Windchill Dew Point Humidity Pressure Visibility Wind Dir Wind Speed Gust Speed Precip Events Conditions
12:53 AM 37.9 °F 32.1 °F 21.0 °F 51% 30.06 in 10.0 mi NE 8.1 mph - N/A   Clear
1:53 AM 39.9 °F 36.7 °F 19.0 °F 43% 30.03 in 10.0 mi ENE 4.6 mph - N/A   Clear
2:53 AM 37.0 °F 33.3 °F 19.9 °F 50% 30.04 in 10.0 mi NNE 4.6 mph - N/A   Clear
3:53 AM 36.0 °F 29.6 °F 19.9 °F 52% 30.06 in 10.0 mi NE 8.1 mph - N/A   Clear
4:53 AM 36.0 °F 29.6 °F 19.0 °F 50% 30.06 in 10.0 mi ENE 8.1 mph - N/A   Clear
5:53 AM 33.1 °F 25.5 °F 19.9 °F 59% 30.09 in 10.0 mi NE 9.2 mph - N/A   Clear
6:53 AM 34.0 °F 27.2 °F 19.9 °F 56% 30.12 in 10.0 mi ENE 8.1 mph - N/A   Clear
7:53 AM 37.0 °F 31.0 °F 21.0 °F 52% 30.15 in 10.0 mi NE 8.1 mph - N/A   Clear
8:53 AM 46.0 °F 43.9 °F 21.9 °F 39% 30.11 in 10.0 mi NNE 4.6 mph - N/A   Clear
9:53 AM 53.1 °F - 21.9 °F 30% 30.09 in 10.0 mi NNW 5.8 mph - N/A   Clear
10:53 AM 57.0 °F - 19.0 °F 23% 30.07 in 10.0 mi Variable 4.6 mph - N/A   Clear
11:53 AM 59.0 °F - 17.1 °F 20% 30.06 in 10.0 mi North 10.4 mph - N/A   Clear
12:53 PM 61.0 °F - 15.1 °F 17% 30.05 in 10.0 mi Calm Calm - N/A   Clear
1:53 PM 62.1 °F - 12.9 °F 15% 30.02 in 10.0 mi WNW 10.4 mph 18.4 mph N/A   Clear
2:53 PM 64.0 °F - 12.9 °F 14% 30.00 in 10.0 mi WNW 10.4 mph 17.3 mph N/A   Clear
3:53 PM 64.0 °F - 12.0 °F 13% 30.01 in 10.0 mi North 9.2 mph 21.9 mph N/A   Clear
4:53 PM 64.0 °F - 12.0 °F 13% 30.00 in 10.0 mi West 12.7 mph 16.1 mph N/A   Clear
5:53 PM 61.0 °F - 7.0 °F 12% 30.04 in 10.0 mi West 13.8 mph 19.6 mph N/A   Clear
6:53 PM 55.9 °F - 10.9 °F 17% 30.09 in 10.0 mi WNW 5.8 mph - N/A   Clear
7:53 PM 52.0 °F - 12.0 °F 20% 30.10 in 10.0 mi NNE 3.5 mph - N/A   Clear
8:53 PM 46.9 °F - 12.9 °F 25% 30.09 in 10.0 mi East 4.6 mph - N/A   Clear
9:53 PM 45.0 °F 41.2 °F 14.0 °F 29% 30.06 in 10.0 mi East 6.9 mph - N/A   Clear
10:53 PM 39.0 °F 36.8 °F 15.1 °F 38% 30.09 in 10.0 mi NNE 3.5 mph - N/A   Clear
11:53 PM 37.9 °F 32.7 °F 17.1 °F 43% 30.07 in 10.0 mi NNE 6.9 mph - N/A   Clear